Retour au catalogue

STARLINK-37721

ActifCommunicationsSSO
NORAD 100220·PAYLOAD·🇺🇸 United States

Lancé Aug 4, 2026 depuis Vandenberg Space Force Base

Loading…

Prochains Passages (prochaines 24 heures)

TLE

FraisSource: Space-Track

Époque: Sep 14, 2026, 22:34 UTC

1 A0220U 26177H   26257.94047747  .00043810  00000-0  80180-3 0  9997
2 A0220  97.2835 308.7427 0001114  88.8559 271.2820 15.49221435  6500

Suivez STARLINK-37721 en temps réel avec AllMySat

Download on the App Store